Time,TemperatureF,DewpointF,PressureIn,WindDirection,WindDirectionDegrees,WindSpeedMPH,WindSpeedGustMPH,Humidity,HourlyPrecipIn,Conditions,Clouds,dailyrainin,SoftwareType,DateUTC
2013-01-07 00:01:00,35.2,31.4,30.18,WSW,240,0.0,0.0,86,0.00,,,0.00,Wunderground v.1.13,2013-01-07 05:01:00,
2013-01-07 00:03:00,35.2,31.4,30.18,WSW,240,0.0,0.0,86,0.00,,,0.00,Wunderground v.1.13,2013-01-07 05:03:00,
2013-01-07 00:04:00,35.2,31.4,30.19,WSW,242,0.0,3.0,86,0.00,,,0.00,Wunderground v.1.13,2013-01-07 05:04:00,
2013-01-07 00:09:00,35.1,31.3,30.19,WSW,244,1.0,5.0,86,0.00,,,0.00,Wunderground v.1.13,2013-01-07 05:09:00,
2013-01-07 00:15:00,34.8,31.3,30.19,WSW,257,1.0,1.0,87,0.00,,,0.00,Wunderground v.1.13,2013-01-07 05:15:00,
2013-01-07 00:21:00,34.6,31.1,30.19,WSW,257,0.0,5.0,87,0.00,,,0.00,Wunderground v.1.13,2013-01-07 05:21:00,
2013-01-07 00:27:00,34.4,30.9,30.19,WSW,257,0.0,5.0,87,0.00,,,0.00,Wunderground v.1.13,2013-01-07 05:27:00,
2013-01-07 00:32:00,34.3,30.8,30.20,WSW,257,0.0,5.0,87,0.00,,,0.00,Wunderground v.1.13,2013-01-07 05:32:00,
2013-01-07 00:38:00,34.2,30.7,30.20,WSW,257,0.0,5.0,87,0.00,,,0.00,Wunderground v.1.13,2013-01-07 05:38:00,
2013-01-07 00:44:00,34.1,30.6,30.20,WSW,257,0.0,5.0,87,0.00,,,0.00,Wunderground v.1.13,2013-01-07 05:44:00,
2013-01-07 00:50:00,34.0,30.5,30.21,WSW,256,1.0,1.0,87,0.00,,,0.00,Wunderground v.1.13,2013-01-07 05:50:00,
2013-01-07 00:55:00,33.9,30.2,30.21,WSW,256,1.0,1.0,86,0.00,,,0.00,Wunderground v.1.13,2013-01-07 05:55:00,
2013-01-07 01:01:00,33.9,30.2,30.21,WSW,256,0.0,5.0,86,0.00,,,0.00,Wunderground v.1.13,2013-01-07 06:01:00,
2013-01-07 01:07:00,33.8,29.8,30.21,WSW,248,1.0,6.0,85,0.00,,,0.00,Wunderground v.1.13,2013-01-07 06:07:00,
2013-01-07 01:13:00,33.8,29.8,30.22,WSW,247,1.0,6.0,85,0.00,,,0.00,Wunderground v.1.13,2013-01-07 06:13:00,
2013-01-07 01:18:00,33.8,29.8,30.22,WSW,247,1.0,6.0,85,0.00,,,0.00,Wunderground v.1.13,2013-01-07 06:18:00,
2013-01-07 01:24:00,33.8,29.8,30.22,WSW,247,0.0,6.0,85,0.00,,,0.01,Wunderground v.1.13,2013-01-07 06:24:00,
2013-01-07 01:30:00,33.8,29.5,30.22,WSW,247,0.0,6.0,84,0.00,,,0.01,Wunderground v.1.13,2013-01-07 06:30:00,
2013-01-07 01:36:00,33.8,29.5,30.23,WSW,249,0.0,6.0,84,0.00,,,0.01,Wunderground v.1.13,2013-01-07 06:36:00,
2013-01-07 01:42:00,33.8,29.5,30.23,West,265,1.0,6.0,84,0.00,,,0.01,Wunderground v.1.13,2013-01-07 06:42:00,
2013-01-07 01:47:00,33.8,29.5,30.23,West,265,1.0,6.0,84,0.00,,,0.01,Wunderground v.1.13,2013-01-07 06:47:00,
2013-01-07 01:53:00,33.8,29.5,30.23,West,262,1.0,6.0,84,0.00,,,0.01,Wunderground v.1.13,2013-01-07 06:53:00,
2013-01-07 01:59:00,33.8,29.5,30.23,West,262,1.0,6.0,84,0.00,,,0.01,Wunderground v.1.13,2013-01-07 06:59:00,
2013-01-07 02:05:00,33.8,29.5,30.24,West,262,0.0,2.0,84,0.00,,,0.01,Wunderground v.1.13,2013-01-07 07:05:00,
2013-01-07 02:11:00,33.7,29.4,30.24,WSW,252,1.0,2.0,84,0.00,,,0.01,Wunderground v.1.13,2013-01-07 07:11:00,
2013-01-07 02:16:00,33.7,29.1,30.24,WSW,251,1.0,2.0,83,0.00,,,0.01,Wunderground v.1.13,2013-01-07 07:16:00,
2013-01-07 02:22:00,33.6,29.0,30.25,WSW,250,1.0,3.0,83,0.00,,,0.01,Wunderground v.1.13,2013-01-07 07:22:00,
2013-01-07 02:28:00,33.6,29.0,30.25,WSW,250,1.0,4.0,83,0.00,,,0.01,Wunderground v.1.13,2013-01-07 07:28:00,
2013-01-07 02:33:00,33.5,28.9,30.25,WSW,248,1.0,3.0,83,0.00,,,0.01,Wunderground v.1.13,2013-01-07 07:33:00,
2013-01-07 02:39:00,33.5,28.9,30.25,WSW,250,1.0,2.0,83,0.00,,,0.01,Wunderground v.1.13,2013-01-07 07:39:00,
2013-01-07 02:45:00,33.4,28.8,30.25,WSW,250,1.0,1.0,83,0.00,,,0.01,Wunderground v.1.13,2013-01-07 07:45:00,
2013-01-07 02:50:00,33.4,28.8,30.25,WSW,250,1.0,1.0,83,0.00,,,0.01,Wunderground v.1.13,2013-01-07 07:50:00,
2013-01-07 02:56:00,33.3,28.7,30.25,WSW,248,1.0,2.0,83,0.00,,,0.01,Wunderground v.1.13,2013-01-07 07:56:00,
2013-01-07 03:02:00,33.3,28.7,30.26,West,265,1.0,3.0,83,0.00,,,0.01,Wunderground v.1.13,2013-01-07 08:02:00,
2013-01-07 03:07:00,33.2,28.6,30.26,West,269,1.0,3.0,83,0.00,,,0.01,Wunderground v.1.13,2013-01-07 08:07:00,
2013-01-07 03:13:00,33.2,28.9,30.26,West,269,1.0,3.0,84,0.00,,,0.01,Wunderground v.1.13,2013-01-07 08:13:00,
2013-01-07 03:19:00,33.1,28.8,30.27,West,271,0.0,3.0,84,0.00,,,0.01,Wunderground v.1.13,2013-01-07 08:19:00,
2013-01-07 03:25:00,33.0,28.7,30.27,West,271,0.0,3.0,84,0.00,,,0.01,Wunderground v.1.13,2013-01-07 08:25:00,
2013-01-07 03:31:00,33.0,28.7,30.27,West,269,0.0,3.0,84,0.00,,,0.01,Wunderground v.1.13,2013-01-07 08:31:00,
2013-01-07 03:36:00,33.0,28.7,30.27,West,269,0.0,3.0,84,0.00,,,0.01,Wunderground v.1.13,2013-01-07 08:36:00,
2013-01-07 03:42:00,32.9,28.6,30.28,West,269,0.0,3.0,84,0.00,,,0.01,Wunderground v.1.13,2013-01-07 08:42:00,
2013-01-07 03:47:00,32.9,28.6,30.28,West,267,1.0,3.0,84,0.00,,,0.01,Wunderground v.1.13,2013-01-07 08:47:00,
2013-01-07 03:53:00,32.8,28.5,30.28,West,267,0.0,3.0,84,0.00,,,0.01,Wunderground v.1.13,2013-01-07 08:53:00,
2013-01-07 03:59:00,32.8,28.5,30.29,West,265,0.0,3.0,84,0.00,,,0.01,Wunderground v.1.13,2013-01-07 08:59:00,
2013-01-07 04:04:00,32.7,28.4,30.29,West,261,1.0,3.0,84,0.00,,,0.01,Wunderground v.1.13,2013-01-07 09:04:00,
2013-01-07 04:10:00,32.7,28.4,30.29,West,259,1.0,1.0,84,0.00,,,0.01,Wunderground v.1.13,2013-01-07 09:10:00,
2013-01-07 04:16:00,32.6,28.3,30.29,WSW,255,1.0,3.0,84,0.00,,,0.01,Wunderground v.1.13,2013-01-07 09:16:00,
2013-01-07 04:22:00,32.5,28.2,30.29,WSW,255,1.0,2.0,84,0.00,,,0.01,Wunderground v.1.13,2013-01-07 09:22:00,
2013-01-07 04:28:00,32.5,28.2,30.29,WSW,255,0.0,2.0,84,0.00,,,0.01,Wunderground v.1.13,2013-01-07 09:28:00,
2013-01-07 04:33:00,32.4,28.1,30.30,WSW,254,1.0,2.0,84,0.00,,,0.01,Wunderground v.1.13,2013-01-07 09:33:00,
2013-01-07 04:39:00,32.3,28.0,30.30,WSW,258,1.0,5.0,84,0.00,,,0.01,Wunderground v.1.13,2013-01-07 09:39:00,
2013-01-07 04:45:00,32.3,28.0,30.30,WSW,258,1.0,1.0,84,0.00,,,0.01,Wunderground v.1.13,2013-01-07 09:45:00,
2013-01-07 04:51:00,32.2,27.9,30.30,WSW,258,0.0,2.0,84,0.00,,,0.01,Wunderground v.1.13,2013-01-07 09:51:00,
2013-01-07 04:56:00,32.2,27.9,30.30,WSW,258,0.0,2.0,84,0.00,,,0.01,Wunderground v.1.13,2013-01-07 09:56:00,
2013-01-07 05:01:00,32.2,27.9,30.30,WSW,250,1.0,6.0,84,0.00,,,0.01,Wunderground v.1.13,2013-01-07 10:01:00,
2013-01-07 05:07:00,32.1,27.8,30.30,WSW,249,1.0,3.0,84,0.00,,,0.01,Wunderground v.1.13,2013-01-07 10:07:00,
2013-01-07 05:13:00,32.1,27.8,30.31,WSW,250,0.0,3.0,84,0.00,,,0.01,Wunderground v.1.13,2013-01-07 10:13:00,
2013-01-07 05:19:00,32.1,27.8,30.31,WSW,250,0.0,3.0,84,0.00,,,0.01,Wunderground v.1.13,2013-01-07 10:19:00,
2013-01-07 05:24:00,32.1,27.8,30.31,WSW,250,0.0,3.0,84,0.00,,,0.01,Wunderground v.1.13,2013-01-07 10:24:00,
2013-01-07 05:30:00,32.1,27.8,30.31,WSW,250,0.0,3.0,84,0.00,,,0.01,Wunderground v.1.13,2013-01-07 10:30:00,
2013-01-07 05:36:00,32.0,27.7,30.31,WSW,250,0.0,3.0,84,0.00,,,0.01,Wunderground v.1.13,2013-01-07 10:36:00,
2013-01-07 05:42:00,32.0,28.0,30.31,WSW,247,0.0,3.0,85,0.00,,,0.01,Wunderground v.1.13,2013-01-07 10:42:00,
2013-01-07 05:47:00,32.0,28.0,30.32,WSW,247,0.0,3.0,85,0.00,,,0.01,Wunderground v.1.13,2013-01-07 10:47:00,
2013-01-07 05:52:00,32.0,28.0,30.32,WSW,247,0.0,3.0,85,0.00,,,0.01,Wunderground v.1.13,2013-01-07 10:52:00,
2013-01-07 05:58:00,31.9,27.6,30.32,WSW,247,0.0,3.0,84,0.00,,,0.01,Wunderground v.1.13,2013-01-07 10:58:00,
2013-01-07 06:04:00,31.9,27.6,30.32,WSW,247,0.0,3.0,84,0.00,,,0.01,Wunderground v.1.13,2013-01-07 11:04:00,
2013-01-07 06:10:00,31.8,27.8,30.32,WSW,247,0.0,0.0,85,0.00,,,0.01,Wunderground v.1.13,2013-01-07 11:10:00,
2013-01-07 06:16:00,31.8,27.8,30.32,WSW,248,1.0,1.0,85,0.00,,,0.01,Wunderground v.1.13,2013-01-07 11:16:00,
2013-01-07 06:21:00,31.8,27.8,30.32,WSW,248,0.0,0.0,85,0.00,,,0.01,Wunderground v.1.13,2013-01-07 11:21:00,
2013-01-07 06:27:00,31.7,27.7,30.33,WSW,257,0.0,1.0,85,0.00,,,0.01,Wunderground v.1.13,2013-01-07 11:27:00,
2013-01-07 06:33:00,31.6,27.6,30.33,WSW,248,1.0,3.0,85,0.00,,,0.01,Wunderground v.1.13,2013-01-07 11:33:00,
2013-01-07 06:39:00,-999.9,-99.9,30.33,WSW,248,0.0,1.0,255,-99.99,,,0.01,Wunderground v.1.13,2013-01-07 11:39:00,
2013-01-07 06:44:00,-999.9,-99.9,30.33,WSW,248,0.0,1.0,255,-99.99,,,0.01,Wunderground v.1.13,2013-01-07 11:44:00,
2013-01-07 06:50:00,-999.9,-99.9,30.34,WSW,245,1.0,1.0,255,-99.99,,,0.01,Wunderground v.1.13,2013-01-07 11:50:00,
2013-01-07 06:56:00,-999.9,-99.9,30.34,WSW,245,1.0,1.0,255,-99.99,,,0.01,Wunderground v.1.13,2013-01-07 11:56:00,
2013-01-07 07:02:00,-999.9,-99.9,30.34,WSW,245,0.0,1.0,255,-99.99,,,0.01,Wunderground v.1.13,2013-01-07 12:02:00,
2013-01-07 07:07:00,-999.9,-99.9,30.34,WSW,245,1.0,4.0,255,-99.99,,,0.01,Wunderground v.1.13,2013-01-07 12:07:00,
2013-01-07 07:13:00,-999.9,-99.9,30.35,WSW,245,1.0,4.0,255,-99.99,,,0.01,Wunderground v.1.13,2013-01-07 12:13:00,
2013-01-07 07:18:00,-999.9,-99.9,30.35,WSW,245,0.0,4.0,255,-99.99,,,0.01,Wunderground v.1.13,2013-01-07 12:18:00,
2013-01-07 07:24:00,-999.9,-99.9,30.35,WSW,245,0.0,4.0,255,-99.99,,,0.01,Wunderground v.1.13,2013-01-07 12:24:00,
2013-01-07 07:29:00,-999.9,-99.9,30.35,WSW,244,0.0,4.0,255,-99.99,,,0.01,Wunderground v.1.13,2013-01-07 12:29:00,
2013-01-07 07:35:00,-999.9,-99.9,30.35,WSW,244,0.0,4.0,255,-99.99,,,0.01,Wunderground v.1.13,2013-01-07 12:35:00,
2013-01-07 07:40:00,-999.9,-99.9,30.36,WSW,244,0.0,4.0,255,-99.99,,,0.01,Wunderground v.1.13,2013-01-07 12:40:00,
2013-01-07 07:46:00,-999.9,-99.9,30.36,WSW,244,0.0,4.0,255,-99.99,,,0.01,Wunderground v.1.13,2013-01-07 12:46:00,
2013-01-07 07:52:00,-999.9,-99.9,30.36,WSW,244,1.0,4.0,255,-99.99,,,0.01,Wunderground v.1.13,2013-01-07 12:52:00,
2013-01-07 07:57:00,-999.9,-99.9,30.36,WSW,244,0.0,4.0,255,-99.99,,,0.01,Wunderground v.1.13,2013-01-07 12:57:00,
2013-01-07 08:03:00,-999.9,-99.9,30.37,WSW,244,0.0,4.0,255,-99.99,,,0.00,Wunderground v.1.13,2013-01-07 13:03:00,
2013-01-07 08:09:00,-999.9,-99.9,30.37,WSW,244,0.0,1.0,255,-99.99,,,0.00,Wunderground v.1.13,2013-01-07 13:09:00,
2013-01-07 08:15:00,-999.9,-99.9,30.37,WSW,244,0.0,1.0,255,-99.99,,,0.00,Wunderground v.1.13,2013-01-07 13:15:00,
2013-01-07 08:21:00,-999.9,-99.9,30.37,WSW,244,1.0,2.0,255,-99.99,,,0.00,Wunderground v.1.13,2013-01-07 13:21:00,
2013-01-07 08:26:00,-999.9,-99.9,30.37,WSW,244,1.0,1.0,255,-99.99,,,0.00,Wunderground v.1.13,2013-01-07 13:26:00,
2013-01-07 08:32:00,-999.9,-99.9,30.38,WSW,244,0.0,1.0,255,-99.99,,,0.00,Wunderground v.1.13,2013-01-07 13:32:00,
2013-01-07 08:38:00,31.5,27.5,30.38,WSW,244,0.0,1.0,85,0.00,,,0.00,Wunderground v.1.13,2013-01-07 13:38:00,
2013-01-07 08:44:00,31.6,27.6,30.39,WSW,244,0.0,2.0,85,0.00,,,0.00,Wunderground v.1.13,2013-01-07 13:44:00,
2013-01-07 08:49:00,31.7,27.7,30.39,WSW,244,0.0,1.0,85,0.00,,,0.00,Wunderground v.1.13,2013-01-07 13:49:00,
2013-01-07 08:55:00,31.7,27.4,30.40,WSW,244,0.0,2.0,84,0.00,,,0.00,Wunderground v.1.13,2013-01-07 13:55:00,
2013-01-07 09:01:00,31.8,27.5,30.40,WSW,244,1.0,3.0,84,0.00,,,0.00,Wunderground v.1.13,2013-01-07 14:01:00,
2013-01-07 09:07:00,31.9,27.6,30.40,WSW,244,1.0,5.0,84,0.00,,,0.00,Wunderground v.1.13,2013-01-07 14:07:00,
2013-01-07 09:13:00,31.9,27.3,30.41,WSW,244,1.0,3.0,83,0.00,,,0.00,Wunderground v.1.13,2013-01-07 14:13:00,
2013-01-07 09:18:00,32.0,27.4,30.41,WSW,244,0.0,3.0,83,0.00,,,0.00,Wunderground v.1.13,2013-01-07 14:18:00,
2013-01-07 09:24:00,32.1,27.8,30.41,WSW,244,0.0,3.0,84,0.00,,,0.00,Wunderground v.1.13,2013-01-07 14:24:00,
2013-01-07 09:30:00,32.2,27.6,30.42,WSW,243,0.0,3.0,83,0.00,,,0.00,Wunderground v.1.13,2013-01-07 14:30:00,
2013-01-07 09:36:00,32.3,27.7,30.42,WSW,243,1.0,3.0,83,0.00,,,0.00,Wunderground v.1.13,2013-01-07 14:36:00,
2013-01-07 09:41:00,32.3,27.4,30.42,WSW,243,0.0,2.0,82,0.00,,,0.00,Wunderground v.1.13,2013-01-07 14:41:00,
2013-01-07 09:47:00,32.4,27.5,30.42,WSW,244,1.0,3.0,82,0.00,,,0.00,Wunderground v.1.13,2013-01-07 14:47:00,
2013-01-07 09:53:00,32.5,27.6,30.43,WSW,244,1.0,3.0,82,0.00,,,0.00,Wunderground v.1.13,2013-01-07 14:53:00,
2013-01-07 09:59:00,32.6,27.7,30.43,WSW,244,0.0,3.0,82,0.00,,,0.00,Wunderground v.1.13,2013-01-07 14:59:00,
2013-01-07 10:04:00,32.8,27.9,30.43,WSW,244,1.0,3.0,82,0.00,,,0.00,Wunderground v.1.13,2013-01-07 15:04:00,
2013-01-07 10:09:00,33.0,28.1,30.43,WSW,244,1.0,2.0,82,0.00,,,0.00,Wunderground v.1.13,2013-01-07 15:09:00,
2013-01-07 10:15:00,33.2,28.0,30.43,WSW,244,0.0,2.0,81,0.00,,,0.00,Wunderground v.1.13,2013-01-07 15:15:00,
2013-01-07 10:21:00,33.4,27.9,30.43,WSW,245,2.0,4.0,80,0.00,,,0.00,Wunderground v.1.13,2013-01-07 15:21:00,
2013-01-07 10:26:00,33.5,27.7,30.43,WSW,242,1.0,2.0,79,0.00,,,0.00,Wunderground v.1.13,2013-01-07 15:26:00,
2013-01-07 10:32:00,33.3,27.8,30.44,WSW,246,1.0,2.0,80,0.00,,,0.00,Wunderground v.1.13,2013-01-07 15:32:00,
2013-01-07 10:38:00,33.2,27.7,30.44,WSW,247,1.0,2.0,80,0.00,,,0.00,Wunderground v.1.13,2013-01-07 15:38:00,
2013-01-07 10:44:00,33.1,27.3,30.44,WSW,248,1.0,2.0,79,0.00,,,0.00,Wunderground v.1.13,2013-01-07 15:44:00,
2013-01-07 10:50:00,33.2,27.4,30.44,WSW,248,1.0,3.0,79,0.00,,,0.00,Wunderground v.1.13,2013-01-07 15:50:00,
2013-01-07 10:55:00,33.4,27.6,30.44,WSW,248,1.0,2.0,79,0.00,,,0.00,Wunderground v.1.13,2013-01-07 15:55:00,
2013-01-07 11:01:00,33.4,27.6,30.44,WSW,248,0.0,3.0,79,0.00,,,0.00,Wunderground v.1.13,2013-01-07 16:01:00,
2013-01-07 11:07:00,33.6,27.5,30.44,WSW,244,2.0,7.0,78,0.00,,,0.00,Wunderground v.1.13,2013-01-07 16:07:00,
2013-01-07 11:12:00,33.6,27.5,30.44,WSW,244,2.0,7.0,78,0.00,,,0.00,Wunderground v.1.13,2013-01-07 16:12:00,
2013-01-07 11:18:00,33.9,27.8,30.44,WSW,245,1.0,8.0,78,0.00,,,0.00,Wunderground v.1.13,2013-01-07 16:18:00,
2013-01-07 11:24:00,33.6,27.5,30.43,SW,232,2.0,7.0,78,0.00,,,0.00,Wunderground v.1.13,2013-01-07 16:24:00,
2013-01-07 11:30:00,33.5,27.4,30.43,WSW,244,2.0,7.0,78,0.00,,,0.00,Wunderground v.1.13,2013-01-07 16:30:00,
2013-01-07 11:36:00,33.6,27.5,30.43,WSW,245,1.0,7.0,78,0.00,,,0.00,Wunderground v.1.13,2013-01-07 16:36:00,
2013-01-07 11:41:00,33.7,27.6,30.43,WSW,245,0.0,7.0,78,0.00,,,0.00,Wunderground v.1.13,2013-01-07 16:41:00,
2013-01-07 11:47:00,33.7,27.6,30.43,WSW,248,1.0,7.0,78,0.00,,,0.00,Wunderground v.1.13,2013-01-07 16:47:00,
2013-01-07 11:53:00,33.7,27.6,30.43,WSW,248,1.0,7.0,78,0.00,,,0.00,Wunderground v.1.13,2013-01-07 16:53:00,
2013-01-07 11:59:00,33.8,27.7,30.43,WSW,248,0.0,7.0,78,0.00,,,0.00,Wunderground v.1.13,2013-01-07 16:59:00,
2013-01-07 12:04:00,33.9,27.4,30.43,WSW,244,1.0,7.0,77,0.00,,,0.00,Wunderground v.1.13,2013-01-07 17:04:00,
2013-01-07 12:10:00,33.9,27.4,30.43,WSW,244,1.0,1.0,77,0.00,,,0.00,Wunderground v.1.13,2013-01-07 17:10:00,
2013-01-07 12:16:00,33.9,27.4,30.43,WSW,246,1.0,1.0,77,0.00,,,0.00,Wunderground v.1.13,2013-01-07 17:16:00,
2013-01-07 12:22:00,33.9,27.4,30.43,WSW,245,1.0,4.0,77,0.00,,,0.00,Wunderground v.1.13,2013-01-07 17:22:00,
2013-01-07 12:28:00,33.9,27.4,30.42,WSW,248,1.0,6.0,77,0.00,,,0.00,Wunderground v.1.13,2013-01-07 17:28:00,
2013-01-07 12:33:00,33.9,27.1,30.42,WSW,248,2.0,4.0,76,0.00,,,0.00,Wunderground v.1.13,2013-01-07 17:33:00,
2013-01-07 12:39:00,34.0,27.2,30.42,WSW,249,1.0,2.0,76,0.00,,,0.00,Wunderground v.1.13,2013-01-07 17:39:00,
2013-01-07 12:45:00,34.2,27.4,30.41,WSW,248,1.0,1.0,76,0.00,,,0.00,Wunderground v.1.13,2013-01-07 17:45:00,
2013-01-07 12:51:00,34.3,27.2,30.41,WSW,248,0.0,1.0,75,0.00,,,0.00,Wunderground v.1.13,2013-01-07 17:51:00,
2013-01-07 12:57:00,34.4,27.3,30.41,WSW,248,0.0,1.0,75,0.00,,,0.00,Wunderground v.1.13,2013-01-07 17:57:00,
2013-01-07 13:03:00,34.6,27.2,30.41,WSW,246,1.0,2.0,74,0.00,,,0.00,Wunderground v.1.13,2013-01-07 18:03:00,
2013-01-07 13:09:00,34.7,26.9,30.40,SW,229,2.0,7.0,73,0.00,,,0.00,Wunderground v.1.13,2013-01-07 18:09:00,
2013-01-07 13:15:00,34.6,26.8,30.41,SW,229,2.0,2.0,73,0.00,,,0.00,Wunderground v.1.13,2013-01-07 18:15:00,
2013-01-07 13:20:00,34.7,26.9,30.40,SW,229,1.0,1.0,73,0.00,,,0.00,Wunderground v.1.13,2013-01-07 18:20:00,
2013-01-07 13:26:00,34.6,25.8,30.40,SW,229,1.0,7.0,70,0.00,,,0.00,Wunderground v.1.13,2013-01-07 18:26:00,
2013-01-07 13:32:00,34.7,26.3,30.40,SW,229,1.0,7.0,71,0.00,,,0.00,Wunderground v.1.13,2013-01-07 18:32:00,
2013-01-07 13:38:00,34.7,26.3,30.40,SW,229,1.0,7.0,71,0.00,,,0.00,Wunderground v.1.13,2013-01-07 18:38:00,
2013-01-07 13:44:00,34.7,25.9,30.40,West,267,1.0,7.0,70,0.00,,,0.00,Wunderground v.1.13,2013-01-07 18:44:00,
2013-01-07 13:50:00,34.7,25.9,30.40,West,266,1.0,1.0,70,0.00,,,0.00,Wunderground v.1.13,2013-01-07 18:50:00,
2013-01-07 13:56:00,34.7,25.9,30.39,West,265,1.0,7.0,70,0.00,,,0.00,Wunderground v.1.13,2013-01-07 18:56:00,
2013-01-07 14:02:00,34.9,26.4,30.38,West,265,1.0,7.0,71,0.00,,,0.00,Wunderground v.1.13,2013-01-07 19:02:00,
2013-01-07 14:07:00,35.1,26.6,30.38,West,265,0.0,0.0,71,0.00,,,0.00,Wunderground v.1.13,2013-01-07 19:07:00,
2013-01-07 14:13:00,35.1,26.3,30.39,West,264,1.0,2.0,70,0.00,,,0.00,Wunderground v.1.13,2013-01-07 19:13:00,
2013-01-07 14:19:00,34.7,26.6,30.39,West,264,1.0,1.0,72,0.00,,,0.00,Wunderground v.1.13,2013-01-07 19:19:00,
2013-01-07 14:25:00,34.4,25.6,30.39,West,264,0.0,0.0,70,0.00,,,0.00,Wunderground v.1.13,2013-01-07 19:25:00,
2013-01-07 14:31:00,34.5,26.1,30.39,West,264,0.0,1.0,71,0.00,,,0.00,Wunderground v.1.13,2013-01-07 19:31:00,
2013-01-07 14:37:00,34.5,26.1,30.39,West,264,0.0,0.0,71,0.00,,,0.00,Wunderground v.1.13,2013-01-07 19:37:00,
2013-01-07 14:43:00,35.0,26.9,30.39,West,264,0.0,0.0,72,0.00,,,0.00,Wunderground v.1.13,2013-01-07 19:43:00,
2013-01-07 14:49:00,34.8,26.4,30.39,West,264,0.0,1.0,71,0.00,,,0.00,Wunderground v.1.13,2013-01-07 19:49:00,
2013-01-07 14:54:00,34.7,26.3,30.39,West,264,0.0,1.0,71,0.00,,,0.00,Wunderground v.1.13,2013-01-07 19:54:00,
2013-01-07 15:00:00,34.8,26.0,30.39,West,264,0.0,0.0,70,0.00,,,0.00,Wunderground v.1.13,2013-01-07 20:00:00,
2013-01-07 15:05:00,34.7,25.9,30.39,West,264,0.0,0.0,70,0.00,,,0.00,Wunderground v.1.13,2013-01-07 20:05:00,
2013-01-07 15:11:00,34.5,26.1,30.39,West,264,0.0,0.0,71,0.00,,,0.00,Wunderground v.1.13,2013-01-07 20:11:00,
2013-01-07 15:16:00,34.8,26.0,30.38,West,268,1.0,1.0,70,0.00,,,0.00,Wunderground v.1.13,2013-01-07 20:16:00,
2013-01-07 15:22:00,34.7,25.9,30.38,West,269,1.0,1.0,70,0.00,,,0.00,Wunderground v.1.13,2013-01-07 20:22:00,
2013-01-07 15:25:00,34.3,25.9,30.38,West,269,0.0,0.0,71,0.00,,,0.00,Wunderground v.1.13,2013-01-07 20:25:00,
2013-01-07 15:31:00,33.8,25.7,30.38,West,269,0.0,3.0,72,0.00,,,0.00,Wunderground v.1.13,2013-01-07 20:31:00,
2013-01-07 15:37:00,33.7,25.6,30.39,West,269,0.0,0.0,72,0.00,,,0.00,Wunderground v.1.13,2013-01-07 20:37:00,
2013-01-07 15:42:00,33.7,26.0,30.39,West,269,0.0,0.0,73,0.00,,,0.00,Wunderground v.1.13,2013-01-07 20:42:00,
2013-01-07 15:48:00,33.8,25.4,30.39,West,269,0.0,0.0,71,0.00,,,0.00,Wunderground v.1.13,2013-01-07 20:48:00,
2013-01-07 15:54:00,33.9,25.8,30.39,West,269,0.0,0.0,72,0.00,,,0.00,Wunderground v.1.13,2013-01-07 20:54:00,
2013-01-07 16:00:00,33.9,25.5,30.39,West,267,0.0,0.0,71,0.00,,,0.00,Wunderground v.1.13,2013-01-07 21:00:00,
2013-01-07 16:05:00,33.7,25.3,30.39,West,265,1.0,3.0,71,0.00,,,0.00,Wunderground v.1.13,2013-01-07 21:05:00,
2013-01-07 16:11:00,33.4,25.3,30.39,West,265,1.0,1.0,72,0.00,,,0.00,Wunderground v.1.13,2013-01-07 21:11:00,
2013-01-07 16:17:00,33.1,25.4,30.39,West,265,0.0,1.0,73,0.00,,,0.00,Wunderground v.1.13,2013-01-07 21:17:00,
2013-01-07 16:23:00,32.8,25.4,30.39,West,265,0.0,1.0,74,0.00,,,0.00,Wunderground v.1.13,2013-01-07 21:23:00,
2013-01-07 16:29:00,32.6,25.2,30.39,West,265,0.0,1.0,74,0.00,,,0.00,Wunderground v.1.13,2013-01-07 21:29:00,
2013-01-07 16:35:00,32.4,25.4,30.38,West,265,0.0,1.0,75,0.00,,,0.00,Wunderground v.1.13,2013-01-07 21:35:00,
2013-01-07 16:41:00,31.6,24.9,30.38,West,265,0.0,1.0,76,0.00,,,0.00,Wunderground v.1.13,2013-01-07 21:41:00,
2013-01-07 16:47:00,31.0,24.6,30.38,West,265,0.0,1.0,77,0.00,,,0.00,Wunderground v.1.13,2013-01-07 21:47:00,
2013-01-07 16:53:00,30.5,24.5,30.38,West,265,0.0,1.0,78,0.00,,,0.00,Wunderground v.1.13,2013-01-07 21:53:00,
2013-01-07 16:58:00,30.3,24.3,30.38,West,265,0.0,1.0,78,0.00,,,0.00,Wunderground v.1.13,2013-01-07 21:58:00,
2013-01-07 17:04:00,30.2,24.2,30.38,West,265,0.0,1.0,78,0.00,,,0.00,Wunderground v.1.13,2013-01-07 22:04:00,
2013-01-07 17:10:00,30.1,24.1,30.38,West,265,0.0,0.0,78,0.00,,,0.00,Wunderground v.1.13,2013-01-07 22:10:00,
2013-01-07 17:16:00,29.9,23.9,30.38,West,265,0.0,0.0,78,0.00,,,0.00,Wunderground v.1.13,2013-01-07 22:16:00,
2013-01-07 17:21:00,29.8,24.1,30.38,West,265,0.0,0.0,79,0.00,,,0.00,Wunderground v.1.13,2013-01-07 22:21:00,
2013-01-07 17:27:00,29.5,23.8,30.38,West,265,0.0,0.0,79,0.00,,,0.00,Wunderground v.1.13,2013-01-07 22:27:00,
2013-01-07 17:33:00,29.0,23.0,30.38,West,265,0.0,0.0,78,0.00,,,0.00,Wunderground v.1.13,2013-01-07 22:33:00,
2013-01-07 17:39:00,28.4,22.7,30.38,West,265,0.0,0.0,79,0.00,,,0.00,Wunderground v.1.13,2013-01-07 22:39:00,
2013-01-07 17:45:00,28.1,22.7,30.38,West,265,0.0,0.0,80,0.00,,,0.00,Wunderground v.1.13,2013-01-07 22:45:00,
2013-01-07 17:50:00,27.8,22.4,30.38,West,265,0.0,0.0,80,0.00,,,0.00,Wunderground v.1.13,2013-01-07 22:50:00,
2013-01-07 17:56:00,27.4,22.0,30.38,West,265,0.0,0.0,80,0.00,,,0.00,Wunderground v.1.13,2013-01-07 22:56:00,
2013-01-07 18:02:00,27.1,22.0,30.38,West,265,0.0,0.0,81,0.00,,,0.00,Wunderground v.1.13,2013-01-07 23:02:00,
2013-01-07 18:08:00,26.8,22.0,30.38,West,265,0.0,0.0,82,0.00,,,0.00,Wunderground v.1.13,2013-01-07 23:08:00,
2013-01-07 18:13:00,26.3,21.6,30.38,West,265,0.0,0.0,82,0.00,,,0.00,Wunderground v.1.13,2013-01-07 23:13:00,
2013-01-07 18:19:00,26.0,21.5,30.38,West,265,0.0,0.0,83,0.00,,,0.00,Wunderground v.1.13,2013-01-07 23:19:00,
2013-01-07 18:25:00,25.6,21.2,30.38,West,265,0.0,0.0,83,0.00,,,0.00,Wunderground v.1.13,2013-01-07 23:25:00,
2013-01-07 18:31:00,25.2,20.8,30.38,West,265,0.0,0.0,83,0.00,,,0.00,Wunderground v.1.13,2013-01-07 23:31:00,
2013-01-07 18:36:00,25.0,20.8,30.37,West,265,0.0,0.0,84,0.00,,,0.00,Wunderground v.1.13,2013-01-07 23:36:00,
2013-01-07 18:42:00,24.7,20.8,30.38,West,265,0.0,0.0,85,0.00,,,0.00,Wunderground v.1.13,2013-01-07 23:42:00,
2013-01-07 18:48:00,24.4,22.4,30.37,West,265,0.0,0.0,92,0.00,,,0.00,Wunderground v.1.13,2013-01-07 23:48:00,
2013-01-07 18:54:00,24.1,20.2,30.37,West,265,0.0,0.0,85,0.00,,,0.00,Wunderground v.1.13,2013-01-07 23:54:00,
2013-01-07 19:00:00,23.8,19.9,30.37,West,265,0.0,0.0,85,0.00,,,0.00,Wunderground v.1.13,2013-01-08 00:00:00,
2013-01-07 19:05:00,23.6,20.0,30.37,West,265,0.0,0.0,86,0.00,,,0.00,Wunderground v.1.13,2013-01-08 00:05:00,
2013-01-07 19:11:00,23.3,19.7,30.37,West,265,0.0,0.0,86,0.00,,,0.00,Wunderground v.1.13,2013-01-08 00:11:00,
2013-01-07 19:17:00,23.0,19.4,30.37,West,265,0.0,0.0,86,0.00,,,0.00,Wunderground v.1.13,2013-01-08 00:17:00,
2013-01-07 19:23:00,22.8,19.2,30.37,West,265,0.0,0.0,86,0.00,,,0.00,Wunderground v.1.13,2013-01-08 00:23:00,
2013-01-07 19:28:00,22.5,18.9,30.37,West,265,0.0,0.0,86,0.00,,,0.00,Wunderground v.1.13,2013-01-08 00:28:00,
2013-01-07 19:34:00,22.3,19.0,30.37,West,265,0.0,0.0,87,0.00,,,0.00,Wunderground v.1.13,2013-01-08 00:34:00,
2013-01-07 19:40:00,22.1,18.8,30.36,West,265,0.0,0.0,87,0.00,,,0.00,Wunderground v.1.13,2013-01-08 00:40:00,
2013-01-07 19:46:00,21.9,18.6,30.36,West,265,0.0,0.0,87,0.00,,,0.00,Wunderground v.1.13,2013-01-08 00:46:00,
2013-01-07 19:52:00,21.6,18.3,30.36,West,265,0.0,0.0,87,0.00,,,0.00,Wunderground v.1.13,2013-01-08 00:52:00,
2013-01-07 19:57:00,21.4,18.1,30.36,West,265,0.0,0.0,87,0.00,,,0.00,Wunderground v.1.13,2013-01-08 00:57:00,
2013-01-07 20:03:00,21.2,18.2,30.36,West,265,0.0,0.0,88,0.00,,,0.00,Wunderground v.1.13,2013-01-08 01:03:00,
2013-01-07 20:08:00,21.0,17.7,30.36,West,265,0.0,0.0,87,0.00,,,0.00,Wunderground v.1.13,2013-01-08 01:08:00,
2013-01-07 20:14:00,20.9,17.9,30.36,West,265,0.0,0.0,88,0.00,,,0.00,Wunderground v.1.13,2013-01-08 01:14:00,
2013-01-07 20:20:00,20.6,17.6,30.36,West,265,0.0,0.0,88,0.00,,,0.00,Wunderground v.1.13,2013-01-08 01:20:00,
2013-01-07 20:26:00,20.3,17.3,30.36,West,265,0.0,0.0,88,0.00,,,0.00,Wunderground v.1.13,2013-01-08 01:26:00,
2013-01-07 20:32:00,20.0,17.0,30.36,West,265,0.0,0.0,88,0.00,,,0.00,Wunderground v.1.13,2013-01-08 01:32:00,
2013-01-07 20:38:00,20.0,17.0,30.36,West,265,0.0,0.0,88,0.00,,,0.00,Wunderground v.1.13,2013-01-08 01:38:00,
2013-01-07 20:44:00,19.9,16.9,30.36,West,265,0.0,0.0,88,0.00,,,0.00,Wunderground v.1.13,2013-01-08 01:44:00,
2013-01-07 20:50:00,19.7,16.7,30.36,West,265,0.0,0.0,88,0.00,,,0.00,Wunderground v.1.13,2013-01-08 01:50:00,
2013-01-07 20:56:00,19.5,16.5,30.36,West,265,0.0,0.0,88,0.00,,,0.00,Wunderground v.1.13,2013-01-08 01:56:00,
2013-01-07 21:02:00,19.4,16.4,30.36,West,265,0.0,0.0,88,0.00,,,0.00,Wunderground v.1.13,2013-01-08 02:02:00,
2013-01-07 21:07:00,19.3,16.3,30.36,West,265,0.0,0.0,88,0.00,,,0.00,Wunderground v.1.13,2013-01-08 02:07:00,
2013-01-07 21:13:00,19.1,16.4,30.36,West,265,0.0,0.0,89,0.00,,,0.00,Wunderground v.1.13,2013-01-08 02:13:00,
2013-01-07 21:18:00,18.9,16.2,30.36,West,265,0.0,0.0,89,0.00,,,0.00,Wunderground v.1.13,2013-01-08 02:18:00,
2013-01-07 21:24:00,18.8,16.1,30.36,West,265,0.0,0.0,89,0.00,,,0.00,Wunderground v.1.13,2013-01-08 02:24:00,
2013-01-07 21:30:00,18.7,16.0,30.36,West,265,0.0,0.0,89,0.00,,,0.00,Wunderground v.1.13,2013-01-08 02:30:00,
2013-01-07 21:35:00,18.6,15.9,30.36,West,265,0.0,0.0,89,0.00,,,0.00,Wunderground v.1.13,2013-01-08 02:35:00,
2013-01-07 21:40:00,18.5,15.8,30.36,West,265,0.0,0.0,89,0.00,,,0.00,Wunderground v.1.13,2013-01-08 02:40:00,
2013-01-07 21:45:00,18.4,15.7,30.36,West,265,0.0,0.0,89,0.00,,,0.00,Wunderground v.1.13,2013-01-08 02:45:00,
2013-01-07 21:51:00,18.2,15.5,30.36,West,265,0.0,0.0,89,0.00,,,0.00,Wunderground v.1.13,2013-01-08 02:51:00,
2013-01-07 21:57:00,18.0,15.3,30.36,West,265,0.0,0.0,89,0.00,,,0.00,Wunderground v.1.13,2013-01-08 02:57:00,
2013-01-07 22:03:00,17.9,15.2,30.36,West,265,0.0,0.0,89,0.00,,,0.00,Wunderground v.1.13,2013-01-08 03:03:00,
2013-01-07 22:08:00,17.8,15.1,30.36,West,265,0.0,0.0,89,0.00,,,0.00,Wunderground v.1.13,2013-01-08 03:08:00,
2013-01-07 22:14:00,17.7,15.0,30.36,West,265,0.0,0.0,89,0.00,,,0.00,Wunderground v.1.13,2013-01-08 03:14:00,
2013-01-07 22:20:00,17.6,14.9,30.36,West,265,0.0,0.0,89,0.00,,,0.00,Wunderground v.1.13,2013-01-08 03:20:00,
2013-01-07 22:26:00,17.5,14.8,30.36,West,265,0.0,0.0,89,0.00,,,0.00,Wunderground v.1.13,2013-01-08 03:26:00,
2013-01-07 22:32:00,17.3,14.6,30.35,West,265,0.0,0.0,89,0.00,,,0.00,Wunderground v.1.13,2013-01-08 03:32:00,
2013-01-07 22:38:00,17.1,14.4,30.35,West,265,0.0,0.0,89,0.00,,,0.00,Wunderground v.1.13,2013-01-08 03:38:00,
2013-01-07 22:44:00,17.0,14.3,30.34,West,265,0.0,0.0,89,0.00,,,0.00,Wunderground v.1.13,2013-01-08 03:44:00,
2013-01-07 22:50:00,16.9,14.5,30.34,West,265,0.0,0.0,90,0.00,,,0.00,Wunderground v.1.13,2013-01-08 03:50:00,
2013-01-07 22:56:00,16.8,14.4,30.34,West,265,0.0,0.0,90,0.00,,,0.00,Wunderground v.1.13,2013-01-08 03:56:00,
2013-01-07 23:01:00,16.7,14.3,30.34,West,265,0.0,0.0,90,0.00,,,0.00,Wunderground v.1.13,2013-01-08 04:01:00,
2013-01-07 23:07:00,16.6,14.2,30.34,West,265,0.0,0.0,90,0.00,,,0.00,Wunderground v.1.13,2013-01-08 04:07:00,
2013-01-07 23:13:00,16.4,14.0,30.34,West,265,0.0,0.0,90,0.00,,,0.00,Wunderground v.1.13,2013-01-08 04:13:00,
2013-01-07 23:18:00,16.3,13.9,30.34,West,265,0.0,0.0,90,0.00,,,0.00,Wunderground v.1.13,2013-01-08 04:18:00,
2013-01-07 23:24:00,16.2,13.8,30.33,West,265,0.0,0.0,90,0.00,,,0.00,Wunderground v.1.13,2013-01-08 04:24:00,
2013-01-07 23:30:00,16.1,13.7,30.33,West,265,0.0,0.0,90,0.00,,,0.00,Wunderground v.1.13,2013-01-08 04:30:00,
2013-01-07 23:36:00,16.1,13.7,30.33,West,265,0.0,0.0,90,0.00,,,0.00,Wunderground v.1.13,2013-01-08 04:36:00,
2013-01-07 23:42:00,15.9,13.5,30.33,West,265,0.0,0.0,90,0.00,,,0.00,Wunderground v.1.13,2013-01-08 04:42:00,
2013-01-07 23:47:00,15.8,13.4,30.32,West,265,0.0,0.0,90,0.00,,,0.00,Wunderground v.1.13,2013-01-08 04:47:00,
2013-01-07 23:53:00,15.7,13.3,30.32,West,265,0.0,0.0,90,0.00,,,0.00,Wunderground v.1.13,2013-01-08 04:53:00,
2013-01-07 23:59:00,15.5,13.1,30.32,West,265,0.0,0.0,90,0.00,,,0.00,Wunderground v.1.13,2013-01-08 04:59:00,